TimeCST,TemperatureF,Dew PointF,Humidity,Sea Level PressureIn,VisibilityMPH,Wind Direction,Wind SpeedMPH,Gust SpeedMPH,PrecipitationIn,Events,Conditions,WindDirDegrees,DateUTC
12:52 AM,28.9,17.1,61,30.25,10.0,West,5.8,-,N/A,,Clear,270,2012-11-14 06:52:00
1:52 AM,23.0,15.1,72,30.25,10.0,Calm,Calm,-,N/A,,Clear,0,2012-11-14 07:52:00
2:52 AM,21.0,15.1,78,30.27,10.0,WNW,6.9,-,N/A,,Clear,300,2012-11-14 08:52:00
3:52 AM,19.9,14.0,78,30.27,10.0,NW,8.1,-,N/A,,Clear,320,2012-11-14 09:52:00
4:52 AM,21.9,16.0,78,30.26,10.0,NNW,6.9,-,N/A,,Clear,330,2012-11-14 10:52:00
5:52 AM,23.0,16.0,74,30.29,10.0,NW,9.2,-,N/A,,Clear,320,2012-11-14 11:52:00
6:52 AM,23.0,16.0,74,30.31,10.0,WNW,5.8,-,N/A,,Clear,290,2012-11-14 12:52:00
7:52 AM,25.0,15.1,66,30.32,10.0,NW,6.9,-,N/A,,Clear,320,2012-11-14 13:52:00
8:52 AM,34.0,17.1,50,30.33,10.0,NNW,6.9,-,N/A,,Clear,330,2012-11-14 14:52:00
9:52 AM,42.1,19.0,40,30.32,10.0,North,6.9,-,N/A,,Clear,350,2012-11-14 15:52:00
10:52 AM,48.9,19.0,31,30.31,10.0,North,5.8,-,N/A,,Clear,350,2012-11-14 16:52:00
11:52 AM,52.0,19.0,27,30.29,10.0,NNW,5.8,-,N/A,,Clear,340,2012-11-14 17:52:00
12:52 PM,54.0,18.0,24,30.26,10.0,Calm,Calm,-,N/A,,Clear,0,2012-11-14 18:52:00
1:52 PM,59.0,17.1,20,30.24,10.0,Calm,Calm,-,N/A,,Clear,0,2012-11-14 19:52:00
2:52 PM,59.0,17.1,20,30.21,10.0,Variable,4.6,-,N/A,,Clear,0,2012-11-14 20:52:00
3:52 PM,57.9,17.1,20,30.19,10.0,SE,10.4,-,N/A,,Clear,130,2012-11-14 21:52:00
4:52 PM,55.0,21.0,27,30.18,10.0,ESE,9.2,-,N/A,,Clear,120,2012-11-14 22:52:00
5:52 PM,48.0,21.9,36,30.18,9.0,SSE,10.4,-,N/A,,Clear,150,2012-11-14 23:52:00
6:52 PM,45.0,21.9,40,30.21,10.0,SSE,11.5,-,N/A,,Clear,160,2012-11-15 00:52:00
7:52 PM,42.1,21.9,45,30.20,10.0,SE,10.4,-,N/A,,Clear,140,2012-11-15 01:52:00
8:52 PM,39.9,21.9,49,30.19,10.0,SSE,11.5,-,N/A,,Clear,150,2012-11-15 02:52:00
9:52 PM,41.0,21.0,45,30.16,10.0,SSE,12.7,-,N/A,,Clear,150,2012-11-15 03:52:00
10:52 PM,39.0,21.9,50,30.15,10.0,SSE,13.8,-,N/A,,Clear,150,2012-11-15 04:52:00
11:52 PM,37.9,21.9,53,30.13,10.0,South,11.5,-,N/A,,Clear,170,2012-11-15 05:52:00